| time (UTC) | temp F | wind direction | speed MPH | gust MPH | rain 1hr in | rain 24hr in | rain mn in | humidity % | barometer mb |
| 20260505124731 | 62 | 296 | 1.0 | 4.0 | 0.00 | 0.00 | 0.00 | 59 | 1012.8 |
| 20260505124231 | 63 | 12 | 0.0 | 4.0 | 0.00 | 0.00 | 0.00 | 57 | 1012.8 |
| 20260505123730 | 62 | 297 | 0.0 | 4.0 | 0.00 | 0.00 | 0.00 | 60 | 1012.9 |
| 20260505123230 | 62 | 305 | 1.0 | 4.0 | 0.00 | 0.00 | 0.00 | 59 | 1012.8 |
| 20260505122730 | 62 | 349 | 1.0 | 6.0 | 0.00 | 0.00 | 0.00 | 60 | 1012.8 |
| 20260505122230 | 61 | 278 | 1.0 | 6.0 | 0.00 | 0.00 | 0.00 | 60 | 1012.9 |
| 20260505121730 | 61 | 266 | 1.0 | 6.0 | 0.00 | 0.00 | 0.00 | 60 | 1012.9 |
| 20260505121231 | 62 | 321 | 1.0 | 6.0 | 0.00 | 0.00 | 0.00 | 58 | 1012.9 |
| 20260505120731 | 62 | 286 | 1.0 | 3.0 | 0.00 | 0.00 | 0.00 | 60 | 1012.9 |
| 20260505120230 | 61 | 285 | 1.0 | 3.0 | 0.00 | 0.00 | 0.00 | 62 | 1012.8 |
| 20260505115733 | 62 | 288 | 1.0 | 4.0 | 0.00 | 0.00 | 0.00 | 60 | 1012.9 |
| 20260505115230 | 61 | 287 | 1.0 | 4.0 | 0.00 | 0.00 | 0.00 | 62 | 1012.9 |
| 20260505114731 | 61 | 359 | 1.0 | 6.0 | 0.00 | 0.00 | 0.00 | 61 | 1012.8 |
| 20260505114232 | 61 | 312 | 1.0 | 6.0 | 0.00 | 0.00 | 0.00 | 62 | 1012.9 |
| 20260505113733 | 61 | 294 | 1.0 | 6.0 | 0.00 | 0.00 | 0.00 | 60 | 1012.8 |
| 20260505113231 | 63 | 259 | 0.0 | 4.0 | 0.00 | 0.00 | 0.00 | 59 | 1012.8 |
| 20260505112730 | 62 | 103 | 1.0 | 8.0 | 0.00 | 0.00 | 0.00 | 61 | 1012.9 |
| 20260505112231 | 61 | 178 | 1.0 | 8.0 | 0.00 | 0.00 | 0.00 | 61 | 1013.0 |
| 20260505111730 | 61 | 235 | 1.0 | 6.0 | 0.00 | 0.00 | 0.00 | 62 | 1013.0 |
| 20260505111230 | 60 | 294 | 1.0 | 6.0 | 0.00 | 0.00 | 0.00 | 62 | 1013.1 |
| 20260505110731 | 60 | 286 | 1.0 | 5.0 | 0.00 | 0.00 | 0.00 | 62 | 1013.0 |
| 20260505110231 | 60 | 283 | 1.0 | 6.0 | 0.00 | 0.00 | 0.00 | 63 | 1013.1 |
| 20260505101736 | 58 | 309 | 1.0 | 7.0 | 0.00 | 0.00 | 0.00 | 65 | 1013.4 |
| 20260505101230 | 58 | 98 | 0.0 | 4.0 | 0.00 | 0.00 | 0.00 | 67 | 1013.5 |
| 20260505100729 | 57 | 232 | 1.0 | 3.0 | 0.00 | 0.00 | 0.00 | 68 | 1013.5 |
| 20260505100229 | 57 | 98 | 1.0 | 3.0 | 0.00 | 0.00 | 0.00 | 68 | 1013.5 |
| 20260505095729 | 57 | 94 | 1.0 | 3.0 | 0.00 | 0.00 | 0.00 | 69 | 1013.6 |
| 20260505095231 | 56 | 231 | 0.0 | 3.0 | 0.00 | 0.00 | 0.00 | 69 | 1013.6 |
| 20260505094731 | 56 | 232 | 0.0 | 2.0 | 0.00 | 0.00 | 0.00 | 69 | 1013.5 |
| 20260505094231 | 56 | 90 | 1.0 | 2.0 | 0.00 | 0.00 | 0.00 | 69 | 1013.6 |
| 20260505093729 | 55 | 212 | 1.0 | 4.0 | 0.00 | 0.00 | 0.00 | 69 | 1013.6 |
| 20260505093229 | 55 | 231 | 0.0 | 4.0 | 0.00 | 0.00 | 0.00 | 71 | 1013.5 |
| 20260505092729 | 55 | 231 | 0.0 | 4.0 | 0.00 | 0.00 | 0.00 | 70 | 1013.6 |
| 20260505092229 | 55 | 229 | 1.0 | 4.0 | 0.00 | 0.00 | 0.00 | 71 | 1013.6 |
| 20260505091729 | 54 | 89 | 1.0 | 3.0 | 0.00 | 0.00 | 0.00 | 71 | 1013.7 |
| 20260505091229 | 54 | 231 | 1.0 | 3.0 | 0.00 | 0.00 | 0.00 | 72 | 1013.6 |
| 20260505090725 | 54 | 91 | 1.0 | 3.0 | 0.00 | 0.00 | 0.00 | 71 | 1013.5 |
| 20260505090219 | 54 | 94 | 1.0 | 2.0 | 0.00 | 0.00 | 0.00 | 71 | 1013.6 |
| 20260505085713 | 55 | 231 | 0.0 | 2.0 | 0.00 | 0.00 | 0.00 | 71 | 1013.5 |
| 20260505085209 | 55 | 229 | 0.0 | 3.0 | 0.00 | 0.00 | 0.00 | 72 | 1013.6 |
| 20260505084707 | 55 | 205 | 1.0 | 3.0 | 0.00 | 0.00 | 0.00 | 72 | 1013.7 |
| 20260505084206 | 55 | 222 | 1.0 | 5.0 | 0.00 | 0.00 | 0.00 | 71 | 1013.7 |
| 20260505083705 | 55 | 101 | 1.0 | 5.0 | 0.00 | 0.00 | 0.00 | 71 | 1013.8 |
| 20260505083204 | 55 | 103 | 1.0 | 4.0 | 0.00 | 0.00 | 0.00 | 72 | 1013.7 |
| 20260505082705 | 54 | 229 | 1.0 | 6.0 | 0.00 | 0.00 | 0.00 | 75 | 1013.7 |
| 20260505082205 | 54 | 220 | 0.0 | 6.0 | 0.00 | 0.00 | 0.00 | 76 | 1013.8 |
| 20260505081705 | 53 | 228 | 1.0 | 5.0 | 0.00 | 0.00 | 0.00 | 77 | 1013.7 |
| 20260505081207 | 52 | 217 | 1.0 | 5.0 | 0.00 | 0.00 | 0.00 | 78 | 1013.7 |
| 20260505080705 | 52 | 229 | 1.0 | 5.0 | 0.00 | 0.00 | 0.00 | 79 | 1013.8 |
| 20260505080205 | 51 | 96 | 1.0 | 5.0 | 0.00 | 0.00 | 0.00 | 79 | 1013.7 |
| 20260505075705 | 51 | 259 | 0.0 | 2.0 | 0.00 | 0.00 | 0.00 | 80 | 1013.8 |
| 20260505075205 | 51 | 261 | 0.0 | 2.0 | 0.00 | 0.00 | 0.00 | 80 | 1013.9 |
| 20260505074705 | 51 | 260 | 0.0 | 2.0 | 0.00 | 0.00 | 0.00 | 82 | 1013.8 |
| 20260505074205 | 51 | 259 | 0.0 | 1.0 | 0.00 | 0.00 | 0.00 | 84 | 1013.9 |
| 20260505073705 | 51 | 260 | 0.0 | 2.0 | 0.00 | 0.00 | 0.00 | 86 | 1013.9 |
| 20260505073204 | 51 | 260 | 0.0 | 2.0 | 0.00 | 0.00 | 0.00 | 88 | 1014.0 |
| 20260505072706 | 50 | 259 | 0.0 | 2.0 | 0.00 | 0.00 | 0.00 | 90 | 1013.9 |
| 20260505072204 | 49 | 261 | 0.0 | 2.0 | 0.00 | 0.00 | 0.00 | 91 | 1014.0 |
| 20260505071705 | 49 | 261 | 0.0 | 2.0 | 0.00 | 0.00 | 0.00 | 91 | 1014.0 |
| 20260505071205 | 49 | 262 | 0.0 | 1.0 | 0.00 | 0.00 | 0.00 | 92 | 1014.0 |
| 20260505070705 | 49 | 259 | 0.0 | 1.0 | 0.00 | 0.00 | 0.00 | 91 | 1014.0 |
| 20260505070205 | 48 | 260 | 0.0 | 0.0 | 0.00 | 0.00 | 0.00 | 92 | 1014.0 |
| 20260505065705 | 48 | 260 | 0.0 | 1.0 | 0.00 | 0.00 | 0.00 | 92 | 1014.0 |
| 20260505065207 | 48 | 261 | 0.0 | 1.0 | 0.00 | 0.00 | 0.00 | 91 | 1014.0 |
| 20260505064707 | 49 | 262 | 0.0 | 1.0 | 0.00 | 0.00 | 0.00 | 92 | 1014.0 |
| 20260505064207 | 48 | 261 | 0.0 | 1.0 | 0.00 | 0.00 | 0.00 | 93 | 1014.0 |
| 20260505063707 | 48 | 261 | 0.0 | 1.0 | 0.00 | 0.00 | 0.00 | 93 | 1014.0 |
| 20260505063207 | 47 | 261 | 0.0 | 0.0 | 0.00 | 0.00 | 0.00 | 92 | 1014.0 |
| 20260505062705 | 47 | 261 | 0.0 | 1.0 | 0.00 | 0.00 | 0.00 | 92 | 1013.9 |
| 20260505062204 | 47 | 261 | 0.0 | 1.0 | 0.00 | 0.00 | 0.00 | 92 | 1013.8 |
| 20260505061702 | 47 | 261 | 0.0 | 1.0 | 0.00 | 0.00 | 0.00 | 92 | 1013.8 |
| 20260505061201 | 47 | 261 | 0.0 | 1.0 | 0.00 | 0.00 | 0.00 | 92 | 1013.8 |
| 20260505060659 | 47 | 261 | 0.0 | 0.0 | 0.00 | 0.00 | 0.00 | 92 | 1013.8 |
| 20260505060159 | 46 | 261 | 0.0 | 1.0 | 0.00 | 0.00 | 0.00 | 92 | 1013.8 |
| 20260505055657 | 46 | 261 | 0.0 | 1.0 | 0.00 | 0.00 | 0.00 | 92 | 1013.8 |
| 20260505055155 | 46 | 261 | 0.0 | 1.0 | 0.00 | 0.00 | 0.00 | 92 | 1013.6 |
| 20260505054654 | 46 | 262 | 0.0 | 1.0 | 0.00 | 0.00 | 0.00 | 92 | 1013.7 |
| 20260505054154 | 45 | 261 | 0.0 | 1.0 | 0.00 | 0.00 | 0.00 | 92 | 1013.7 |
| 20260505053654 | 45 | 261 | 0.0 | 1.0 | 0.00 | 0.00 | 0.00 | 92 | 1013.7 |
| 20260505053152 | 45 | 262 | 0.0 | 0.0 | 0.00 | 0.00 | 0.00 | 92 | 1013.7 |
| 20260505052650 | 45 | 262 | 0.0 | 0.0 | 0.00 | 0.00 | 0.00 | 92 | 1013.6 |
| 20260505052148 | 44 | 262 | 0.0 | 0.0 | 0.00 | 0.00 | 0.00 | 92 | 1013.6 |
| 20260505051645 | 44 | 262 | 0.0 | 0.0 | 0.00 | 0.00 | 0.00 | 92 | 1013.6 |
| 20260505051144 | 44 | 262 | 0.0 | 0.0 | 0.00 | 0.00 | 0.00 | 92 | 1013.6 |
| 20260505050640 | 44 | 262 | 0.0 | 1.0 | 0.00 | 0.00 | 0.00 | 92 | 1013.7 |
| 20260505050139 | 44 | 262 | 0.0 | 1.0 | 0.00 | 0.00 | 0.00 | 92 | 1013.5 |
| 20260505041620 | 45 | 262 | 0.0 | 0.0 | 0.00 | 0.00 | 0.00 | 91 | 1013.9 |
| 20260505041119 | 45 | 262 | 0.0 | 0.0 | 0.00 | 0.00 | 0.00 | 91 | 1013.8 |
| 20260505040619 | 46 | 262 | 0.0 | 0.0 | 0.00 | 0.00 | 0.00 | 91 | 1013.9 |
| 20260505040117 | 46 | 262 | 0.0 | 0.0 | 0.00 | 0.00 | 0.00 | 91 | 1013.9 |
| 20260505035615 | 46 | 262 | 0.0 | 1.0 | 0.00 | 0.00 | 0.00 | 91 | 1014.0 |
| 20260505035114 | 46 | 262 | 0.0 | 1.0 | 0.00 | 0.00 | 0.00 | 91 | 1014.0 |
| 20260505034611 | 46 | 262 | 0.0 | 0.0 | 0.00 | 0.00 | 0.00 | 91 | 1013.9 |
| 20260505034109 | 46 | 262 | 0.0 | 0.0 | 0.00 | 0.00 | 0.00 | 90 | 1013.8 |
| 20260505033607 | 47 | 262 | 0.0 | 0.0 | 0.00 | 0.00 | 0.00 | 90 | 1013.8 |
| 20260505033105 | 47 | 262 | 0.0 | 0.0 | 0.00 | 0.00 | 0.00 | 90 | 1013.8 |
| 20260505032603 | 47 | 262 | 0.0 | 0.0 | 0.00 | 0.00 | 0.00 | 90 | 1013.7 |
| 20260505032105 | 47 | 262 | 0.0 | 0.0 | 0.00 | 0.00 | 0.00 | 90 | 1013.7 |
| 20260505031602 | 47 | 262 | 0.0 | 1.0 | 0.00 | 0.00 | 0.00 | 90 | 1013.7 |
| 20260505031102 | 47 | 262 | 0.0 | 1.0 | 0.00 | 0.00 | 0.00 | 90 | 1013.7 |
| 20260505030603 | 47 | 262 | 0.0 | 1.0 | 0.00 | 0.00 | 0.00 | 90 | 1013.7 |
| 20260505030104 | 48 | 262 | 0.0 | 0.0 | 0.00 | 0.00 | 0.00 | 90 | 1013.7 |
| 20260505025603 | 48 | 262 | 0.0 | 1.0 | 0.00 | 0.00 | 0.00 | 90 | 1013.6 |
| 20260505025103 | 48 | 262 | 0.0 | 1.0 | 0.00 | 0.00 | 0.00 | 90 | 1013.6 |
| 20260505024603 | 48 | 262 | 0.0 | 1.0 | 0.00 | 0.00 | 0.00 | 90 | 1013.7 |
| 20260505024057 | 48 | 262 | 0.0 | 1.0 | 0.00 | 0.00 | 0.00 | 90 | 1013.7 |
| 20260505023551 | 49 | 262 | 0.0 | 1.0 | 0.00 | 0.00 | 0.00 | 90 | 1013.7 |
| 20260505023045 | 49 | 262 | 0.0 | 1.0 | 0.00 | 0.00 | 0.00 | 90 | 1013.7 |
| 20260505022539 | 49 | 262 | 0.0 | 1.0 | 0.00 | 0.00 | 0.00 | 90 | 1013.8 |
| 20260505022033 | 49 | 262 | 0.0 | 0.0 | 0.00 | 0.00 | 0.00 | 89 | 1013.9 |
| 20260505021534 | 49 | 262 | 0.0 | 0.0 | 0.00 | 0.00 | 0.00 | 89 | 1013.9 |
| 20260505021034 | 49 | 262 | 0.0 | 0.0 | 0.00 | 0.00 | 0.00 | 89 | 1013.9 |
| 20260505020536 | 50 | 262 | 0.0 | 0.0 | 0.00 | 0.00 | 0.00 | 89 | 1013.9 |
| 20260505020031 | 50 | 262 | 0.0 | 0.0 | 0.00 | 0.00 | 0.00 | 89 | 1014.0 |
| 20260505015531 | 50 | 262 | 0.0 | 1.0 | 0.00 | 0.00 | 0.00 | 89 | 1014.1 |
| 20260505015031 | 50 | 262 | 0.0 | 1.0 | 0.00 | 0.00 | 0.00 | 89 | 1014.1 |
| 20260505014531 | 50 | 262 | 0.0 | 1.0 | 0.00 | 0.00 | 0.00 | 89 | 1014.1 |
| 20260505014032 | 50 | 262 | 0.0 | 1.0 | 0.00 | 0.00 | 0.00 | 89 | 1014.1 |
| 20260505013531 | 50 | 262 | 0.0 | 1.0 | 0.00 | 0.00 | 0.00 | 89 | 1013.9 |
| 20260505013032 | 50 | 262 | 0.0 | 1.0 | 0.00 | 0.00 | 0.00 | 89 | 1014.1 |
| 20260505012530 | 50 | 262 | 0.0 | 1.0 | 0.00 | 0.00 | 0.00 | 89 | 1014.1 |
| 20260505012032 | 50 | 262 | 0.0 | 1.0 | 0.00 | 0.00 | 0.00 | 89 | 1014.0 |
| 20260505011531 | 50 | 262 | 0.0 | 1.0 | 0.00 | 0.00 | 0.00 | 89 | 1014.1 |
| 20260505011031 | 50 | 262 | 0.0 | 0.0 | 0.00 | 0.00 | 0.00 | 89 | 1014.2 |
| 20260505010531 | 51 | 262 | 0.0 | 0.0 | 0.00 | 0.00 | 0.00 | 89 | 1014.1 |
| 20260505010035 | 51 | 262 | 0.0 | 0.0 | 0.00 | 0.00 | 0.00 | 88 | 1014.2 |
| 20260505005537 | 51 | 262 | 0.0 | 0.0 | 0.00 | 0.00 | 0.00 | 88 | 1014.2 |
| 20260505005033 | 51 | 262 | 0.0 | 0.0 | 0.00 | 0.00 | 0.00 | 88 | 1014.2 |
| 20260505004529 | 51 | 262 | 0.0 | 0.0 | 0.00 | 0.00 | 0.00 | 88 | 1014.3 |
| 20260505004022 | 51 | 262 | 0.0 | 0.0 | 0.00 | 0.00 | 0.00 | 88 | 1014.4 |
| 20260505003516 | 51 | 262 | 0.0 | 0.0 | 0.00 | 0.00 | 0.00 | 88 | 1014.4 |
| 20260505003013 | 51 | 262 | 0.0 | 0.0 | 0.00 | 0.00 | 0.00 | 88 | 1014.4 |
| 20260505002511 | 51 | 262 | 0.0 | 1.0 | 0.00 | 0.00 | 0.00 | 88 | 1014.5 |
| 20260505002009 | 51 | 262 | 0.0 | 1.0 | 0.00 | 0.00 | 0.00 | 88 | 1014.4 |
| 20260505001509 | 51 | 262 | 0.0 | 1.0 | 0.00 | 0.00 | 0.00 | 88 | 1014.4 |
| 20260505001015 | 51 | 262 | 0.0 | 1.0 | 0.00 | 0.00 | 0.00 | 88 | 1014.5 |
| 20260505000508 | 51 | 261 | 0.0 | 1.0 | 0.00 | 0.00 | 0.00 | 88 | 1014.5 |
| 20260505000007 | 51 | 262 | 0.0 | 1.0 | 0.00 | 0.00 | 0.00 | 87 | 1014.6 |
| 20260504235505 | 51 | 261 | 0.0 | 1.0 | 0.00 | 0.00 | 0.00 | 87 | 1014.5 |
| 20260504235006 | 51 | 262 | 0.0 | 1.0 | 0.00 | 0.00 | 0.00 | 87 | 1014.6 |
| 20260504234004 | 52 | 261 | 0.0 | 1.0 | 0.00 | 0.00 | 0.00 | 87 | 1014.5 |
| 20260504233502 | 52 | 261 | 0.0 | 1.0 | 0.00 | 0.00 | 0.00 | 86 | 1014.6 |
| 20260504233003 | 52 | 261 | 0.0 | 1.0 | 0.00 | 0.00 | 0.00 | 86 | 1014.5 |
| 20260504232502 | 52 | 261 | 0.0 | 1.0 | 0.00 | 0.00 | 0.00 | 86 | 1014.5 |
| 20260504232004 | 52 | 261 | 0.0 | 2.0 | 0.00 | 0.00 | 0.00 | 86 | 1014.5 |
| 20260504231505 | 52 | 260 | 1.0 | 5.0 | 0.00 | 0.00 | 0.00 | 86 | 1014.6 |
| 20260504231003 | 52 | 255 | 1.0 | 5.0 | 0.00 | 0.00 | 0.00 | 86 | 1014.5 |
| 20260504230457 | 52 | 255 | 1.0 | 3.0 | 0.00 | 0.00 | 0.00 | 87 | 1014.4 |
| 20260504225957 | 52 | 256 | 0.0 | 3.0 | 0.00 | 0.00 | 0.00 | 87 | 1014.5 |
| 20260504225458 | 52 | 256 | 0.0 | 2.0 | 0.00 | 0.00 | 0.00 | 87 | 1014.5 |
| 20260504224958 | 52 | 256 | 0.0 | 3.0 | 0.00 | 0.00 | 0.00 | 87 | 1014.6 |
| 20260504224456 | 52 | 255 | 0.0 | 3.0 | 0.00 | 0.00 | 0.00 | 87 | 1014.7 |
| 20260504223954 | 52 | 256 | 0.0 | 1.0 | 0.00 | 0.00 | 0.00 | 87 | 1014.6 |
| 20260504223451 | 52 | 256 | 0.0 | 2.0 | 0.00 | 0.00 | 0.00 | 86 | 1014.6 |
| 20260504222949 | 52 | 256 | 0.0 | 3.0 | 0.00 | 0.00 | 0.00 | 86 | 1014.8 |
| 20260504222448 | 52 | 255 | 0.0 | 3.0 | 0.00 | 0.00 | 0.00 | 86 | 1014.7 |
| 20260504221946 | 52 | 256 | 0.0 | 3.0 | 0.00 | 0.00 | 0.00 | 86 | 1014.8 |
| 20260504221445 | 53 | 255 | 0.0 | 2.0 | 0.00 | 0.00 | 0.00 | 86 | 1014.9 |
| 20260504220945 | 53 | 255 | 0.0 | 2.0 | 0.00 | 0.00 | 0.00 | 86 | 1014.9 |
| 20260504220443 | 53 | 255 | 0.0 | 2.0 | 0.00 | 0.00 | 0.00 | 86 | 1014.9 |
| 20260504215944 | 53 | 255 | 0.0 | 1.0 | 0.00 | 0.00 | 0.00 | 86 | 1014.9 |
| 20260504215443 | 53 | 255 | 0.0 | 1.0 | 0.00 | 0.00 | 0.00 | 86 | 1014.9 |
| 20260504214944 | 53 | 255 | 0.0 | 0.0 | 0.00 | 0.00 | 0.00 | 86 | 1014.9 |
| 20260504214443 | 53 | 255 | 0.0 | 1.0 | 0.00 | 0.00 | 0.00 | 86 | 1014.8 |
| 20260504213945 | 53 | 255 | 0.0 | 1.0 | 0.00 | 0.00 | 0.00 | 86 | 1014.8 |
| 20260504213440 | 53 | 255 | 0.0 | 1.0 | 0.00 | 0.00 | 0.00 | 86 | 1014.8 |
| 20260504212934 | 53 | 255 | 0.0 | 1.0 | 0.00 | 0.00 | 0.00 | 85 | 1014.8 |
| 20260504212429 | 53 | 255 | 0.0 | 1.0 | 0.00 | 0.00 | 0.00 | 85 | 1014.7 |
| 20260504211926 | 53 | 255 | 0.0 | 1.0 | 0.00 | 0.00 | 0.00 | 85 | 1014.8 |
| 20260504211425 | 53 | 255 | 0.0 | 1.0 | 0.00 | 0.00 | 0.00 | 85 | 1014.7 |
| 20260504210926 | 53 | 256 | 0.0 | 1.0 | 0.00 | 0.00 | 0.00 | 85 | 1014.7 |
| 20260504210424 | 53 | 255 | 0.0 | 1.0 | 0.00 | 0.00 | 0.00 | 85 | 1014.7 |
| 20260504205924 | 53 | 255 | 0.0 | 1.0 | 0.00 | 0.00 | 0.00 | 85 | 1014.8 |
| 20260504205425 | 53 | 256 | 0.0 | 1.0 | 0.00 | 0.00 | 0.00 | 84 | 1014.9 |
| 20260504204925 | 53 | 256 | 0.0 | 1.0 | 0.00 | 0.00 | 0.00 | 84 | 1014.9 |
| 20260504204425 | 53 | 256 | 0.0 | 1.0 | 0.00 | 0.00 | 0.00 | 84 | 1014.8 |
| 20260504203925 | 54 | 256 | 0.0 | 1.0 | 0.00 | 0.00 | 0.00 | 84 | 1014.9 |
| 20260504203425 | 54 | 256 | 0.0 | 1.0 | 0.00 | 0.00 | 0.00 | 84 | 1014.9 |
| 20260504202925 | 54 | 255 | 0.0 | 1.0 | 0.00 | 0.00 | 0.00 | 84 | 1014.8 |
| 20260504202424 | 54 | 256 | 0.0 | 1.0 | 0.00 | 0.00 | 0.00 | 84 | 1014.6 |
| 20260504201925 | 54 | 256 | 0.0 | 2.0 | 0.00 | 0.00 | 0.00 | 84 | 1014.6 |
| 20260504201422 | 54 | 256 | 0.0 | 2.0 | 0.00 | 0.00 | 0.00 | 84 | 1014.5 |
| 20260504200420 | 54 | 255 | 0.0 | 1.0 | 0.00 | 0.00 | 0.00 | 84 | 1014.5 |
| 20260504195921 | 54 | 255 | 0.0 | 1.0 | 0.00 | 0.00 | 0.00 | 84 | 1014.5 |
| 20260504195420 | 54 | 255 | 0.0 | 1.0 | 0.00 | 0.00 | 0.00 | 84 | 1014.4 |
| 20260504194922 | 55 | 255 | 0.0 | 0.0 | 0.00 | 0.00 | 0.00 | 83 | 1014.4 |
| 20260504194422 | 55 | 255 | 0.0 | 1.0 | 0.00 | 0.00 | 0.00 | 83 | 1014.4 |
| 20260504193922 | 55 | 255 | 0.0 | 1.0 | 0.00 | 0.00 | 0.00 | 83 | 1014.3 |
| 20260504193423 | 55 | 255 | 0.0 | 1.0 | 0.00 | 0.00 | 0.00 | 83 | 1014.3 |
| 20260504192921 | 55 | 255 | 0.0 | 1.0 | 0.00 | 0.00 | 0.00 | 83 | 1014.2 |
| 20260504192420 | 55 | 255 | 0.0 | 1.0 | 0.00 | 0.00 | 0.00 | 83 | 1014.2 |
| 20260504191921 | 55 | 255 | 0.0 | 0.0 | 0.00 | 0.00 | 0.00 | 83 | 1014.1 |
| 20260504191421 | 55 | 255 | 0.0 | 1.0 | 0.00 | 0.00 | 0.00 | 83 | 1014.1 |
| 20260504190920 | 55 | 255 | 0.0 | 1.0 | 0.00 | 0.00 | 0.00 | 83 | 1014.0 |
| 20260504190420 | 55 | 255 | 0.0 | 1.0 | 0.00 | 0.00 | 0.00 | 83 | 1014.0 |
| 20260504185920 | 56 | 256 | 0.0 | 3.0 | 0.00 | 0.00 | 0.00 | 82 | 1013.9 |
| 20260504185421 | 56 | 256 | 0.0 | 3.0 | 0.00 | 0.00 | 0.00 | 82 | 1014.0 |
| 20260504184921 | 56 | 256 | 0.0 | 2.0 | 0.00 | 0.00 | 0.00 | 82 | 1014.0 |
| 20260504184420 | 56 | 256 | 0.0 | 2.0 | 0.00 | 0.00 | 0.00 | 82 | 1014.0 |
| 20260504183920 | 56 | 256 | 0.0 | 2.0 | 0.00 | 0.00 | 0.00 | 81 | 1014.0 |
| 20260504183420 | 56 | 255 | 0.0 | 1.0 | 0.00 | 0.00 | 0.00 | 81 | 1014.0 |
| 20260504182920 | 56 | 255 | 0.0 | 1.0 | 0.00 | 0.00 | 0.00 | 81 | 1013.9 |
| 20260504182418 | 56 | 255 | 0.0 | 1.0 | 0.00 | 0.00 | 0.00 | 81 | 1013.9 |
| 20260504181916 | 56 | 255 | 0.0 | 1.0 | 0.00 | 0.00 | 0.00 | 80 | 1013.9 |
| 20260504181414 | 57 | 254 | 0.0 | 1.0 | 0.00 | 0.00 | 0.00 | 81 | 1013.9 |
| 20260504180912 | 57 | 255 | 0.0 | 1.0 | 0.00 | 0.00 | 0.00 | 81 | 1013.9 |
| 20260504180411 | 57 | 254 | 0.0 | 1.0 | 0.00 | 0.00 | 0.00 | 81 | 1013.8 |
| 20260504175908 | 57 | 255 | 0.0 | 1.0 | 0.00 | 0.00 | 0.00 | 81 | 1013.7 |
| 20260504175407 | 57 | 254 | 0.0 | 0.0 | 0.00 | 0.00 | 0.00 | 81 | 1013.8 |
| 20260504174906 | 57 | 254 | 0.0 | 0.0 | 0.00 | 0.00 | 0.00 | 81 | 1013.8 |
| 20260504174407 | 57 | 254 | 0.0 | 0.0 | 0.00 | 0.00 | 0.00 | 81 | 1013.7 |
| 20260504173906 | 57 | 254 | 0.0 | 1.0 | 0.00 | 0.00 | 0.00 | 81 | 1013.7 |
| 20260504173405 | 56 | 254 | 0.0 | 1.0 | 0.00 | 0.00 | 0.00 | 81 | 1013.6 |
| 20260504172857 | 57 | 254 | 0.0 | 3.0 | 0.00 | 0.00 | 0.00 | 81 | 1013.6 |
| 20260504172351 | 57 | 255 | 0.0 | 3.0 | 0.00 | 0.00 | 0.00 | 80 | 1013.6 |
| 20260504171846 | 57 | 255 | 0.0 | 4.0 | 0.00 | 0.00 | 0.00 | 80 | 1013.6 |
| 20260504171340 | 57 | 253 | 0.0 | 4.0 | 0.00 | 0.00 | 0.00 | 80 | 1013.7 |
| 20260504170833 | 57 | 255 | 1.0 | 4.0 | 0.00 | 0.00 | 0.00 | 80 | 1013.6 |
| 20260504170330 | 57 | 255 | 0.0 | 2.0 | 0.00 | 0.00 | 0.00 | 81 | 1013.5 |
| 20260504160303 | 58 | 255 | 1.0 | 7.0 | 0.00 | 0.00 | 0.00 | 77 | 1013.6 |
| 20260504150756 | 59 | 219 | 1.0 | 9.0 | 0.00 | 0.00 | 0.00 | 77 | 1013.6 |
| 20260504150250 | 59 | 245 | 1.0 | 4.0 | 0.00 | 0.00 | 0.00 | 78 | 1013.8 |
| 20260504141215 | 60 | 257 | 0.0 | 3.0 | 0.00 | 0.00 | 0.00 | 77 | 1013.6 |
| 20260504140715 | 61 | 139 | 0.0 | 3.0 | 0.00 | 0.00 | 0.00 | 76 | 1013.7 |
| 20260504140215 | 61 | 181 | 1.0 | 3.0 | 0.00 | 0.00 | 0.00 | 76 | 1013.6 |
| 20260504130709 | 62 | 169 | 0.0 | 4.0 | 0.00 | 0.00 | 0.00 | 74 | 1013.6 |
| 20260504130207 | 62 | 129 | 0.0 | 4.0 | 0.00 | 0.00 | 0.00 | 73 | 1013.6 |